STARLINK-1132, 45044

Orbit data source: Space-Track

STARLINK-1132, 45044 is a payload satellite owned by SpaceX/Seattle (US) in LEO that was launched on Wed, 29 Jan 2020 UTC via an FALCON 9 launch vehicle from the Air Force Eastern Test Range (AFETR). Payload-class satellites include a variety of spacecraft equipped with specific instruments for various scientific and technological missions. These include communications satellites like Starlink; space stations such as the ISS; scientific satellites like the Hubble; Earth observation satellites from companies like Planet Labs, Umbra, and HawkEye 360; GPS; miniature CubeSats for education and research; and military/defense satellites.

Loading next visibility...
Identifier
45044, 2020-006A
Orbit
LEO
Country
Flag of USUS
Related business
Manufacturer
SpaceX/Seattle
Mission
Operational Commercial Communications
Bus & Motor
STARLINK, Unknown motor
Mass
260 kg wet, ~248 kg dry
Launch date (UTC)
2020-01-29 (6 years ago)
Launch vehicle
FALCON 9
Launch site
Air Force Eastern Test Range (AFETR)
Object type
Payload
Rocket body
Debris
Shape & HBR
Box + 1 Pan, 10.1 m
Radar Cross Section
13.562 m², Large (>1 m²)

Expand to show TLE details & history
Last TLE update: 15 hours ago

TLE from 15 hours ago
0 STARLINK-1132
1 45044U 20006A   25292.00270870  .00000449  00000-0  49066-4 0  9995
2 45044  53.0554 182.6805 0001191  97.7795 262.3330 15.06380421315386
Epoch: 2025-10-19T00:03Z
TLE epoch observation values (Epoch: 2025-10-19T00:03:54.031Z)
Latitude
0.00003°
Longitude
153.97977°
Altitude
548.261 km
Speed
7.589 km/s
True Right ascension
12h 10m 43s
True Declination
0° 00' 00"
Sunlit
Object was in daylight at epoch
Visualization orbit readout
Latitude
Unknown
Longitude
Unknown
Altitude
Unknown
Speed
Unknown
Apparent Right ascension
Unknown
Apparent Declination
Unknown
Sunlit
N/A
Visualization observer readout
Local Sidereal Time
10:19:09
Azimuth
Unknown
Elevation
Unknown
Doppler factor
Unknown
Orbital elements
Apogee altitude
548.367 km
Perigee altitude
546.717 km
Semi-major axis
6,925.679 km
Eccentricity
0.00012
Inclination
53.0554°
RAAN
182.6805°
Arg. of periapsis
97.7795°
True anomaly
262.31947°
Mean anomaly
262.333°
Eccentric anomaly
262.32624°
Mean motion
3.76573 °/min
Orbital period
95.6 mins
BSTAR
0.000049066
Loading maneuver chart data...
Computing Atmospheric mass density...

Documentation

Showing up to 5 results
|